This is the latest recevied weather packets stored in our database for station/object WC4PEM-11. If no packets are shown the sender has not sent any weather packets the latest 10 day(s).
| Time | Temp. | Humidity | Pressure | Rain* | Wind** | Luminosity | Snow |
|---|---|---|---|---|---|---|---|
| 1787661801 | 25° C | 94% | 1018.2 hPa | 0 mm | - | - | - |
| 1787661501 | 24.44° C | 94% | 1018.3 hPa | 0 mm | - | - | - |
| 1787661201 | 24.44° C | 95% | 1018.3 hPa | 0 mm | - | - | - |
| 1787660901 | 23.89° C | 96% | 1018.2 hPa | 0 mm | - | - | - |
| 1787660601 | 23.89° C | 97% | 1018.2 hPa | 0 mm | - | - | - |
| 1787660301 | 23.89° C | 97% | 1018.1 hPa | 0 mm | - | - | - |
| 1787660075 | 23.33° C | 97% | 1018.2 hPa | 0 mm | - | - | - |
| 1787660001 | 23.33° C | 97% | 1018.2 hPa | 0 mm | - | - | - |
| 1787659701 | 23.33° C | 98% | 1018.1 hPa | 0 mm | - | - | - |
| 1787659401 | 22.78° C | 98% | 1018 hPa | 0 mm | - | - | - |
| 1787659102 | 22.78° C | 97% | 1018.1 hPa | 0 mm | - | - | - |
| 1787658802 | 22.78° C | 97% | 1018.1 hPa | 0 mm | - | - | - |
| 1787658633 | 22.22° C | 97% | 1018.1 hPa | 0 mm | - | - | - |
| 1787658502 | 22.22° C | 97% | 1018.1 hPa | 0 mm | - | - | - |
| 1787658202 | 22.22° C | 97% | 1018 hPa | 0 mm | - | - | - |
| 1787657902 | 22.22° C | 96% | 1017.9 hPa | 0 mm | - | - | - |
| 1787657602 | 22.22° C | 96% | 1017.7 hPa | 0 mm | - | - | - |
| 1787657400 | 22.22° C | 96% | 1017.7 hPa | 0 mm | - | - | - |
| 1787657302 | 22.22° C | 96% | 1017.7 hPa | 0 mm | - | - | - |
| 1787657002 | 22.22° C | 96% | 1017.6 hPa | 0 mm | - | - | - |
| 1787656702 | 22.22° C | 96% | 1017.6 hPa | 0 mm | - | - | - |
| 1787656448 | 22.78° C | 96% | 1017.6 hPa | 0 mm | - | - | - |
| 1787656402 | 22.78° C | 96% | 1017.6 hPa | 0 mm | - | - | - |
| 1787656197 | 22.78° C | 97% | 1017.5 hPa | 0 mm | - | - | - |
| 1787656102 | 22.78° C | 97% | 1017.5 hPa | 0 mm | - | - | - |
* Rain latest hour (hover to see other rain measurements)
** Current wind speed in m/s (hover to see current wind gust speed)